Weather History for Philip, SD

Change the Weather History Date:

Friday, May 16, 2014

  Actual Average Record
Temperature  
Mean Temperature 47 °F 57 °F  
Max Temperature 55 °F 70 °F 94 °F (1979)
Min Temperature 38 °F 44 °F 32 °F (2011)
Degree Days  
Heating Degree Days 18 9  
Month to date heating degree days 269 175  
Since 1 July heating degree days 7431 7042  
Cooling Degree Days 0 1  
Month to date cooling degree days 0 11  
Year to date cooling degree days 0 14  
Moisture  
Dew Point 39 °F    
Average Humidity 73    
Maximum Humidity 92    
Minimum Humidity 53    
Precipitation  
Precipitation 0.26 in 0.09 in 1.09 in (1961)
Month to date precipitation 1.88 1.58  
Year to date precipitation 4.32 5.47  
Sea Level Pressure  
Sea Level Pressure 30.06 in    
Wind  
Wind Speed 6 mph (ENE)    
Max Wind Speed 18 mph    
Max Gust Speed 21 mph    
Visibility 9 miles    
Events Rain    
T = Trace of Precipitation, MM = Missing Value Source: NWS Daily Summary

Daily Weather History Graph

Daily Weather History Graph

Search for Another Location

Airport:

Trip Planner

Search our weather history database for the weather conditions in past years. The results will help you decide how hot, cold, wet, or windy it might be!

Date:

Astronomy

May. 16, 2014 Rise Set
Actual Time 5:19 AM MDT 8:07 PM MDT
Civil Twilight 4:45 AM MDT 8:40 PM MDT
Nautical Twilight 4:03 AM MDT 9:23 PM MDT
Astronomical Twilight 3:13 AM MDT 10:13 PM MDT
Moon 10:15 PM MDT (5/16) 7:02 AM MDT (5/16)
Length of Visible Light 15h 55m
Length of Day
14h 48m
Waning Gibbous, 95% of the Moon is Illuminated
May 16
Waning Gibbous
May 21
Last Quarter
May 28
New
Jun 5
First Quarter
Jun 12
Full

Hourly Weather History & Observations

Time (MDT) Temp. Windchill Dew Point Humidity Pressure Visibility Wind Dir Wind Speed Gust Speed Precip Events Conditions
12:55 AM 45.0 °F 41.2 °F 28.9 °F 53% 30.05 in 10.0 mi East 6.9 mph - N/A   Mostly Cloudy
1:55 AM 46.0 °F 42.5 °F 27.0 °F 47% 30.01 in 10.0 mi SE 6.9 mph - 0.00 in Rain Light Rain
2:48 AM 44.6 °F 40.7 °F 32.0 °F 61% 30.02 in 9.0 mi East 6.9 mph - N/A Rain Light Rain
2:55 AM 46.0 °F 41.0 °F 30.9 °F 56% 30.02 in 10.0 mi NE 10.4 mph - 0.00 in Rain Light Rain
3:55 AM 43.0 °F 40.3 °F 35.1 °F 74% 29.99 in 10.0 mi SE 4.6 mph - 0.00 in Rain Light Rain
4:55 AM 44.1 °F 41.5 °F 37.9 °F 79% 29.95 in 10.0 mi SSE 4.6 mph - 0.00 in   Overcast
5:55 AM 45.0 °F 43.5 °F 39.9 °F 82% 29.97 in 9.0 mi NE 3.5 mph - 0.00 in Rain Light Rain
6:32 AM 43.0 °F 39.5 °F 39.0 °F 86% 30.02 in 2.5 mi NE 5.8 mph - 0.11 in Rain Heavy Rain
6:46 AM 42.1 °F 38.4 °F 39.0 °F 89% 30.01 in 3.0 mi ENE 5.8 mph - 0.18 in Rain Rain
6:55 AM 43.0 °F 38.8 °F 39.9 °F 89% 30.00 in 5.0 mi East 6.9 mph - 0.20 in Rain Light Rain
7:55 AM 45.0 °F 40.1 °F 41.0 °F 86% 30.01 in 10.0 mi NE 9.2 mph - 0.02 in   Overcast
8:48 AM 45.0 °F 41.8 °F 42.1 °F 90% 29.99 in 10.0 mi ENE 5.8 mph - N/A   Overcast
8:55 AM 45.0 °F 40.1 °F 42.1 °F 90% 30.00 in 10.0 mi ESE 9.2 mph - N/A   Overcast
9:19 AM 46.0 °F 42.5 °F 43.0 °F 89% 30.00 in 10.0 mi East 6.9 mph - N/A   Overcast
9:26 AM 46.0 °F 42.5 °F 43.0 °F 89% 30.00 in 10.0 mi East 6.9 mph - N/A   Overcast
9:35 AM 46.0 °F 41.4 °F 43.0 °F 89% 30.00 in 10.0 mi ENE 9.2 mph - N/A   Overcast
9:55 AM 46.9 °F - 42.1 °F 83% 30.04 in 10.0 mi NE 13.8 mph - 0.00 in Rain Light Rain
10:36 AM 46.0 °F 39.6 °F 43.0 °F 89% 30.05 in 6.0 mi NE 15.0 mph - 0.03 in Rain Light Rain
10:55 AM 44.1 °F 36.5 °F 41.0 °F 89% 30.08 in 6.0 mi NE 17.3 mph - 0.03 in Rain Light Rain
11:55 AM 46.9 °F - 43.0 °F 86% 30.08 in 10.0 mi ENE 11.5 mph - 0.01 in   Overcast
12:46 PM 48.0 °F - 42.1 °F 80% 30.09 in 10.0 mi NE 5.8 mph - N/A   Overcast
12:55 PM 48.9 °F - 42.1 °F 77% 30.10 in 10.0 mi NE 6.9 mph - N/A   Overcast
1:16 PM 48.9 °F - 41.0 °F 74% 30.09 in 10.0 mi North 3.5 mph - N/A   Overcast
1:55 PM 50.0 °F - 41.0 °F 71% 30.11 in 10.0 mi NE 5.8 mph - N/A   Overcast
2:55 PM 51.1 °F - 39.0 °F 63% 30.12 in 10.0 mi NNE 3.5 mph - N/A   Overcast
3:55 PM 53.1 °F - 39.9 °F 61% 30.13 in 10.0 mi NW 5.8 mph - N/A   Overcast
4:55 PM 55.0 °F - 39.9 °F 57% 30.12 in 10.0 mi Variable 3.5 mph - N/A   Scattered Clouds
5:55 PM 54.0 °F - 39.0 °F 57% 30.11 in 10.0 mi WSW 4.6 mph - N/A   Clear
6:55 PM 53.1 °F - 37.9 °F 57% 30.11 in 10.0 mi Calm Calm - N/A   Clear
7:55 PM 51.1 °F - 36.0 °F 56% 30.12 in 10.0 mi SSW 3.5 mph - N/A   Clear
8:55 PM 46.0 °F 43.9 °F 37.0 °F 71% 30.14 in 10.0 mi WSW 4.6 mph - N/A   Clear
9:55 PM 42.1 °F 40.2 °F 36.0 °F 79% 30.14 in 10.0 mi WNW 3.5 mph - N/A   Clear
10:55 PM 39.9 °F - 35.1 °F 83% 30.14 in 10.0 mi Calm Calm - N/A   Clear
11:55 PM 39.0 °F 36.8 °F 35.1 °F 86% 30.13 in 10.0 mi West 3.5 mph - N/A   Clear